User: anonymous   Login
Location: Unspecified
(0.0000°N, 0.0000°E)
Time: 07:30:34
(UTC+00:00)
Language:

PRISM - Orbit

View from above orbital plane
View from above orbital plane
View from above satellite
View from above satellite

Ground track
Ground track

The orbit data is extracted from the following two-line orbital elements,

1 33493U 09002B   18174.72188512 -.00000031  00000-0  29482-5 0  9993
2 33493  98.1292  77.0633 0014695 298.9363  61.0401 14.96235033511326
Epoch (UTC): 23 June 2018 17:19:30
Eccentricity: 0.0014695
inclination: 98.1292°
perigee height: 568 km
apogee height: 589 km
right ascension of ascending node: 77.0633°
argument of perigee: 298.9363°
revolutions per day: 14.96235033
mean anomaly at epoch: 61.0401°
orbit number at epoch: 51132

The dashed part of the orbit path shows where the satellite is in the earth's shadow,  

DLR